Temperature
23 22 22 21 20 19 21 22 22 22 21 21 21 21 20 19 19 19 19 19 19 18 18 18 18 18 18 18 18 18 18 18 18 18 18 18 18 18 18 18 18 18 18 18 18 18 18 18 18
23 22 22 22 20 20 21 22 22 22 21 22 21 20 19 18 18 19 19 19 19 19 18 18 18 18 18 18 18 18 18 18 18 18 18 18 18 18 18 18 18 18 18 18 18 17 18 17 18
23 22 22 20 21 20 22 22 22 22 22 22 21 20 19 19 19 19 19 19 19 19 18 18 18 18 18 18 18 18 18 18 18 18 18 18 18 18 18 18 18 18 18 18 18 17 17 17 17
23 23 23 21 22 22 22 22 22 22 22 22 21 20 19 19 20 20 19 19 19 19 19 18 18 18 18 18 18 18 18 18 18 18 18 18 18 18 18 18 18 18 18 17 17 17 17 17 17
24 24 21 21 23 23 23 23 23 22 22 21 20 19 19 19 20 20 19 19 19 19 19 18 18 18 18 18 18 18 18 18 18 18 18 18 18 18 18 18 18 18 18 17 17 17 17 17 17
24 22 21 22 23 24 23 23 23 22 21 21 20 19 19 19 20 20 19 19 19 19 19 18 18 18 18 18 18 18 18 18 18 18 18 18 18 18 18 18 18 18 17 17 17 17 17 17 17
24 22 22 23 23 24 24 23 22 21 21 21 20 19 19 19 19 19 19 19 19 19 19 18 18 18 18 18 18 18 18 18 18 18 18 18 18 18 18 18 18 18 18 17 17 17 17 17 17
26 22 23 23 24 24 24 24 23 22 22 21 21 19 19 19 19 19 19 19 19 19 19 18 18 18 18 18 18 18 18 18 18 18 18 18 18 18 18 18 18 18 17 17 17 17 17 17 17
26 22 22 23 24 24 24 23 23 23 22 22 22 21 21 20 19 19 19 19 19 19 19 18 18 18 18 18 18 18 18 18 18 18 18 18 18 18 18 18 17 17 17 17 17 17 17 17 17
25 22 24 24 24 24 24 24 23 23 22 21 21 21 21 20 19 19 19 19 19 19 19 19 18 18 18 18 18 18 18 18 18 18 18 18 18 18 18 18 17 17 17 17 17 17 17 17 17
25 24 25 25 26 26 24 24 24 22 21 21 21 21 20 20 20 20 20 20 20 19 19 19 19 18 18 18 18 18 18 18 18 18 18 18 18 18 18 18 18 18 17 17 17 17 17 17 17
25 25 26 26 27 26 25 24 23 23 23 24 23 22 21 20 20 20 20 20 20 19 19 19 19 19 18 18 18 18 18 18 18 18 18 18 18 18 18 18 18 18 17 17 17 17 17 17 17
26 26 27 27 27 26 25 24 24 23 24 23 22 22 21 21 21 20 20 20 20 20 19 19 19 19 19 18 18 18 18 18 18 18 18 18 18 18 18 18 18 17 17 17 17 17 17 17 17
27 26 26 26 26 26 24 24 24 23 23 23 22 21 21 21 21 21 20 20 20 20 20 19 19 19 19 19 18 18 18 18 18 18 18 18 18 18 18 18 18 17 17 17 17 17 17 17 17
27 26 26 26 26 25 25 24 23 23 23 22 22 21 21 21 21 21 21 21 21 20 20 20 19 19 19 19 18 18 18 18 18 18 18 18 18 18 18 18 18 18 17 17 17 17 17 17 17
26 25 25 26 25 25 25 24 23 23 23 21 21 21 21 21 21 21 21 21 21 20 20 20 20 19 19 19 19 18 18 18 18 18 18 18 18 18 18 18 18 18 18 17 17 17 17 17 17
25 24 25 26 25 25 24 24 23 23 22 21 21 21 21 21 21 21 21 21 21 21 20 20 20 20 19 19 19 19 18 18 18 18 18 18 18 18 18 18 18 18 18 17 17 17 17 17 17
25 25 25 25 25 24 24 23 22 22 22 22 22 22 22 22 22 22 22 21 21 21 21 20 20 20 19 19 19 19 18 18 18 18 18 18 18 18 18 18 18 17 17 17 17 17 17 17 17
25 25 25 25 25 24 24 23 22 22 22 22 22 22 22 22 23 22 22 21 21 21 21 20 20 20 19 19 19 19 19 19 18 18 18 18 18 18 18 18 17 17 17 17 17 17 17 17 17
25 25 25 25 25 24 23 23 22 22 22 22 22 22 22 23 22 22 22 22 22 21 21 21 20 20 20 20 19 19 19 19 18 18 18 18 18 18 18 18 17 17 17 17 17 17 17 17 17
25 24 25 24 24 24 23 23 22 22 22 22 22 23 23 23 23 23 23 22 22 22 21 21 21 20 20 20 19 19 19 19 19 18 18 18 18 18 18 18 17 17 17 17 17 17 17 17 17
25 25 25 25 23 22 23 22 22 21 21 21 22 22 23 23 23 23 23 23 22 22 22 21 21 20 20 20 20 19 19 19 19 19 18 18 18 18 18 17 17 17 17 17 17 17 17 17 17
25 25 24 24 22 21 22 22 21 21 21 21 21 22 23 23 23 24 24 23 23 22 22 22 21 21 20 20 20 19 19 19 19 19 18 18 18 18 18 17 17 17 17 17 17 17 17 17 17
25 23 22 20 20 21 21 21 21 20 21 21 22 22 22 23 23 24 24 23 23 23 22 22 21 21 20 20 20 19 19 19 19 19 18 18 18 18 18 18 17 17 17 17 17 17 17 17 17
24 22 21 22 20 20 21 21 21 21 21 22 22 22 23 23 23 23 23 23 23 23 22 22 21 21 21 20 20 20 19 19 19 19 19 18 18 18 18 18 17 17 17 17 17 17 17 17 17
23 22 21 22 21 20 20 20 21 22 22 22 23 23 23 23 23 23 23 23 23 23 23 22 22 21 21 20 20 20 19 19 19 19 19 18 18 18 18 18 17 17 17 17 17 17 17 17 17
22 21 21 19 19 20 20 20 21 21 21 21 21 22 22 22 23 23 23 23 23 23 23 23 22 22 21 21 20 20 20 19 19 19 18 18 18 18 18 18 18 17 17 17 17 17 17 17 17
22 19 18 19 19 20 21 21 20 21 21 21 20 21 22 22 22 22 23 23 23 23 23 22 22 22 21 21 21 20 20 19 19 19 19 18 18 18 18 18 18 17 17 17 17 17 17 17 17
22 20 18 17 18 19 20 21 21 21 20 20 20 21 22 22 22 22 23 23 23 23 23 22 22 22 21 21 20 20 20 20 19 19 19 18 18 18 18 18 18 18 17 17 17 17 17 17 17
23 21 18 20 19 17 19 20 21 20 20 20 20 20 21 21 22 22 22 22 22 22 22 22 21 21 21 21 20 20 20 19 19 19 19 18 18 18 18 18 18 18 17 17 17 17 17 17 17
Wind_Speed
12 10 4 2 5 6 4 4 2 3 4 3 6 6 6 4 2 3 1 4 5 4 4 6 9 11 11 11 12 12 13 13 14 14 14 14 14 14 14 13 14 15 15 15 16 16 16 17 17
8 6 2 3 5 4 3 3 4 3 5 5 6 6 6 5 3 5 3 4 5 5 5 6 9 10 10 11 11 12 12 13 13 13 13 13 13 13 13 13 14 14 14 15 16 16 16 16 16
8 4 3 4 4 4 2 2 5 5 4 3 4 5 5 3 4 4 3 6 6 5 5 6 9 10 10 10 11 11 12 12 12 12 12 12 13 13 13 13 14 14 15 16 16 16 16 16 15
4 2 4 6 4 1 4 5 7 6 5 6 5 5 4 3 4 5 8 8 7 5 5 6 9 9 10 10 10 10 11 11 11 11 11 12 12 13 13 13 13 14 15 15 16 16 15 15 14
2 4 6 5 4 2 4 6 4 4 4 5 5 5 4 4 7 10 9 8 7 4 4 6 8 9 9 9 9 9 10 11 10 10 10 11 11 12 12 12 13 13 14 14 14 15 14 14 13
4 5 5 3 3 3 4 4 5 6 5 5 5 4 3 3 7 8 8 6 5 5 4 5 8 8 8 8 9 9 9 10 10 9 9 10 11 12 12 12 12 13 13 13 13 13 13 12 12
4 5 4 3 2 2 3 3 5 6 5 4 4 5 2 3 5 7 7 6 5 4 4 3 5 7 7 7 8 8 8 9 9 9 9 10 11 12 11 11 11 12 12 12 12 12 12 11 11
4 5 4 2 3 3 5 4 4 6 5 6 5 7 5 5 8 8 7 6 5 4 3 3 4 5 5 5 7 7 7 8 8 8 8 10 10 10 10 9 10 10 10 10 11 11 11 10 9
4 5 3 5 6 4 6 5 4 4 7 4 3 5 7 13 12 9 6 4 3 3 2 2 3 3 3 4 5 6 6 6 7 6 7 7 6 6 6 8 8 8 9 9 9 9 9 8 8
4 4 7 6 6 7 7 6 7 5 5 3 5 7 12 13 12 10 8 7 6 5 3 2 3 3 2 2 3 3 4 4 4 4 5 5 5 4 4 5 6 6 7 7 7 7 7 6 5
5 6 5 3 5 8 8 6 5 9 5 6 10 14 14 13 10 9 9 8 7 6 5 4 3 3 3 2 3 2 3 3 3 4 4 5 4 3 3 2 2 3 4 4 5 5 4 4 4
4 3 4 4 6 8 9 7 6 6 6 8 13 16 15 13 12 11 10 8 6 6 5 5 4 4 3 3 2 2 2 2 2 3 4 4 2 2 2 1 1 1 1 2 2 2 3 3 3
2 1 2 6 8 7 7 6 5 3 5 12 14 14 14 13 11 9 8 7 6 7 6 6 5 5 4 3 2 3 3 3 3 3 4 4 3 2 1 1 1 1 1 2 2 2 2 1 1
1 3 4 6 7 5 7 4 4 3 9 13 13 13 12 13 11 8 7 8 8 8 7 6 6 6 5 4 3 3 3 4 3 3 4 5 4 3 2 1 1 1 2 2 2 2 1 1 1
4 5 6 3 4 4 8 2 4 7 11 12 12 11 11 10 10 10 10 10 9 8 8 7 7 6 6 5 4 4 4 4 3 4 4 5 5 5 4 2 2 2 2 2 2 1 1 1 1
5 5 2 2 4 5 7 5 5 10 13 12 11 11 10 9 10 10 10 9 8 8 8 8 8 7 6 5 4 3 4 4 4 4 4 5 6 6 5 2 2 3 2 2 2 2 1 1 1
4 2 2 2 3 5 5 5 5 10 12 12 11 10 9 8 8 8 9 10 9 9 8 8 7 8 7 5 4 3 3 3 4 4 4 5 6 6 5 3 3 3 2 2 2 2 2 1 1
4 3 3 4 3 5 4 4 5 11 12 12 11 9 9 10 11 9 8 8 8 8 8 8 7 7 6 4 3 1 1 1 3 3 4 6 6 6 6 4 3 3 2 1 2 2 1 1 1
6 5 4 4 3 4 4 4 6 10 10 10 10 10 10 11 8 7 7 8 8 7 8 8 7 6 6 3 3 3 2 2 1 3 4 5 5 6 5 3 2 3 3 2 3 2 2 1 2
5 4 3 2 1 4 2 2 2 8 11 11 12 12 12 9 7 8 8 8 9 9 9 8 8 7 7 5 3 3 2 2 1 1 2 4 4 5 5 3 3 3 3 2 3 3 2 1 2
3 5 5 3 2 4 4 3 2 3 5 6 8 8 9 12 11 10 10 10 10 10 10 9 8 8 7 6 4 3 2 2 1 0 1 2 3 4 4 4 3 3 3 3 3 4 4 3 2
4 6 7 6 5 0 2 3 6 4 4 7 9 9 10 10 10 10 10 11 12 11 10 9 9 8 7 7 6 6 4 3 3 2 2 1 2 3 4 4 4 3 3 3 3 3 3 3 2
5 2 5 5 5 2 1 3 7 1 6 10 11 11 11 10 11 12 12 12 11 10 10 9 8 7 7 7 8 6 5 4 2 2 2 2 1 2 3 4 3 3 3 3 3 3 3 3 3
6 8 8 6 5 1 3 4 7 5 9 7 8 10 9 8 9 10 10 9 9 9 9 9 9 7 7 7 7 7 7 5 4 3 3 2 1 2 2 3 3 3 3 4 4 4 4 3 3
6 7 4 4 3 5 2 3 9 8 7 7 8 8 9 8 8 9 10 10 10 10 11 10 10 8 7 8 7 7 7 6 6 5 5 3 2 2 3 3 3 3 4 4 4 4 4 4 4
6 9 9 6 6 4 1 5 8 5 4 3 4 5 6 7 8 9 10 11 11 11 10 10 10 8 8 8 8 7 6 5 4 5 4 4 3 3 3 4 4 4 4 4 4 3 4 4 4
7 5 7 8 4 1 4 6 8 3 2 1 2 3 5 7 8 9 9 9 9 10 11 11 11 9 8 8 7 6 6 5 5 4 4 3 3 3 3 3 3 4 4 4 4 3 4 4 4
6 9 7 7 7 4 4 5 6 6 5 3 4 4 5 5 6 7 8 9 8 8 8 8 8 8 7 7 6 6 5 5 5 4 4 4 4 3 3 3 3 3 4 4 4 4 4 4 4
5 5 6 6 6 7 4 7 6 9 7 7 6 5 5 6 6 6 6 6 5 5 6 6 6 5 5 6 5 5 5 5 4 4 5 4 3 4 4 4 3 3 3 4 4 4 5 5 4
4 7 8 7 5 5 6 7 5 5 4 5 4 3 3 4 5 4 4 5 5 5 6 6 6 5 5 6 6 5 4 4 4 5 5 4 4 4 5 4 4 4 4 4 5 5 5 6 5
Wind_Direction
147 145 146 125 56 51 36 9 66 74 57 50 77 81 92 70 88 136 151 125 115 114 122 119 114 114 112 110 109 110 108 107 108 109 110 110 111 111 110 110 114 115 116 118 117 116 116 117 118
147 155 158 65 73 60 8 7 74 78 127 119 80 71 71 64 63 104 116 122 110 111 113 119 114 114 113 114 113 111 110 107 108 109 110 111 110 110 110 113 116 116 119 120 120 119 118 118 118
163 186 95 68 79 126 138 109 114 107 108 85 75 62 68 90 116 132 145 124 103 100 110 124 117 116 112 112 112 112 112 111 111 110 111 111 111 111 111 113 116 118 120 120 120 120 119 119 119
158 85 55 63 55 169 158 151 137 122 73 56 80 66 59 79 129 133 127 120 111 101 111 126 122 117 114 113 113 111 112 112 110 110 112 113 113 114 111 113 118 119 119 120 121 120 120 119 119
93 79 57 45 18 39 116 141 131 102 74 68 80 80 47 30 100 119 125 124 122 112 115 125 123 118 114 114 114 113 113 113 113 113 114 116 119 118 115 115 118 121 121 121 121 121 121 121 120
69 69 73 56 28 60 103 121 106 91 92 91 86 87 52 88 113 129 128 122 119 117 115 127 128 124 122 120 119 118 116 115 117 118 120 120 121 120 119 119 119 124 125 125 124 124 123 123 122
107 93 114 128 104 115 154 122 123 119 116 122 114 96 91 130 128 126 116 110 106 107 105 110 125 129 129 127 126 123 119 118 115 116 119 123 125 124 123 123 121 122 125 127 127 126 125 123 121
137 102 96 139 155 172 149 120 126 127 121 127 122 135 168 173 130 114 100 95 100 100 98 103 107 114 124 133 131 129 124 120 118 119 120 123 125 126 125 123 124 122 121 123 124 125 124 122 121
107 81 162 191 176 169 147 130 141 109 120 133 128 150 153 137 129 122 112 103 121 136 115 111 106 110 120 132 138 134 130 126 123 122 121 114 107 112 120 126 129 125 123 123 125 125 123 121 117
101 137 206 195 170 154 152 145 147 120 125 114 91 101 125 138 143 148 155 163 172 177 176 154 142 136 137 142 119 110 110 112 112 109 107 109 109 114 121 127 132 128 121 116 120 125 122 114 110
146 175 200 182 159 138 140 141 134 133 173 187 159 147 147 151 158 166 174 177 184 182 180 173 170 165 156 133 127 118 109 108 108 114 118 117 112 110 108 115 112 107 104 95 95 102 112 117 121
150 203 168 159 143 140 146 140 136 170 204 167 155 151 155 164 175 182 183 186 178 172 184 180 178 171 174 164 149 145 141 138 143 150 142 135 128 113 111 116 117 110 119 109 102 103 108 120 135
120 147 105 124 124 136 128 138 145 178 127 129 141 151 164 176 184 188 184 181 175 182 188 186 180 179 176 169 180 167 171 172 178 172 169 163 155 143 146 164 174 184 178 154 138 130 132 146 156
110 81 81 103 115 130 129 129 118 163 136 139 152 167 177 183 184 182 182 185 189 192 191 184 183 184 173 177 183 183 182 180 182 187 187 187 183 174 166 174 191 208 207 194 177 159 151 175 170
76 70 53 75 108 129 116 116 203 162 147 155 168 177 183 190 188 193 194 193 193 193 188 183 187 182 178 183 189 185 185 182 192 204 201 195 194 187 180 187 203 214 197 182 163 143 138 162 150
55 65 65 266 129 136 135 212 206 157 158 170 179 184 190 196 199 203 196 192 189 184 184 188 189 178 182 184 182 178 183 183 199 208 202 202 200 194 187 193 217 219 184 174 157 144 132 150 146
45 123 210 263 180 152 164 218 192 166 170 179 186 190 193 200 209 208 197 189 186 185 181 181 179 173 179 179 174 178 181 191 205 206 207 210 208 201 192 200 222 207 174 170 175 147 150 160 152
200 196 206 214 221 157 184 225 185 179 181 187 189 192 196 205 212 203 194 186 180 179 177 178 176 172 164 152 144 147 172 209 209 207 212 210 208 203 194 198 204 183 158 160 147 133 128 155 144
169 176 223 234 204 163 196 226 200 185 190 194 196 197 203 213 211 192 185 178 172 172 176 180 178 173 158 152 159 167 197 203 208 220 218 207 203 197 191 188 173 173 175 179 160 143 144 152 121
161 172 231 300 120 147 160 269 219 191 202 201 201 203 204 203 193 192 185 179 181 183 185 187 188 180 178 175 165 163 154 172 193 217 218 219 207 197 196 189 184 178 171 165 167 160 160 164 154
188 183 194 190 61 66 92 333 264 226 208 210 211 205 203 204 197 195 190 190 187 191 190 193 195 192 187 172 140 118 96 74 90 180 218 224 212 208 202 198 191 180 177 186 188 179 175 181 184
229 211 175 156 124 248 135 242 273 232 227 220 216 209 210 210 197 192 191 193 195 197 190 187 190 192 186 171 167 168 175 187 202 192 203 221 207 205 205 205 200 190 184 192 200 184 181 170 188
199 137 131 135 129 95 39 163 279 215 238 236 224 217 215 210 197 193 194 195 195 191 186 184 184 188 184 177 177 175 182 187 175 171 201 226 227 214 212 206 203 202 198 197 188 176 182 183 185
127 75 60 55 78 145 229 175 268 232 225 234 223 215 210 203 194 192 191 183 184 183 182 177 178 188 183 179 178 182 187 183 178 194 214 225 227 232 224 209 205 205 204 202 198 189 186 191 189
101 98 52 16 18 245 233 190 248 251 234 225 219 209 201 192 188 187 185 185 185 184 185 181 180 188 184 182 186 191 193 188 195 204 211 214 220 226 228 214 207 207 206 200 193 191 193 192 195
175 146 158 183 207 257 272 227 255 265 259 243 217 193 183 183 186 189 190 190 188 185 181 177 179 183 182 187 193 192 192 193 202 204 202 207 217 227 219 209 213 213 206 199 188 192 200 195 203
141 165 157 134 144 165 263 277 300 290 277 182 169 166 177 183 184 184 183 187 185 181 179 181 178 177 181 186 186 186 188 190 198 203 202 210 219 229 222 211 216 219 211 202 188 196 207 196 203
142 143 110 126 149 206 263 259 245 249 231 202 189 194 191 179 176 183 186 184 177 177 172 170 175 179 177 178 185 189 186 190 192 191 204 210 215 216 211 212 215 220 217 205 198 201 202 194 205
120 111 114 119 150 158 215 260 228 219 211 197 205 202 187 175 177 183 185 177 160 148 149 160 168 165 170 173 175 178 183 184 183 198 211 214 214 213 220 219 210 212 210 204 201 205 195 195 202
164 165 150 154 193 173 173 255 286 224 203 179 186 181 165 161 165 161 153 140 136 143 149 160 163 176 182 177 171 177 177 177 188 204 214 211 217 220 220 215 216 215 207 200 202 211 203 197 200
Height
1485 1486 1487 1489 1492 1504 1509 1503 1498 1499 1500 1501 1501 1502 1504 1507 1511 1516 1512 1511 1512 1512 1513 1513 1514 1515 1515 1516 1517 1518 1518 1519 1520 1520 1521 1521 1522 1522 1523 1523 1524 1525 1526 1528 1530 1532 1534 1536 1538
1486 1487 1489 1490 1501 1518 1513 1502 1501 1500 1501 1502 1503 1504 1506 1508 1509 1510 1511 1512 1513 1514 1515 1516 1517 1517 1518 1519 1519 1520 1521 1521 1522 1522 1523 1523 1524 1524 1525 1524 1526 1526 1527 1529 1531 1534 1536 1538 1540
1487 1488 1490 1493 1506 1515 1511 1503 1502 1502 1502 1502 1505 1506 1508 1510 1511 1512 1513 1514 1515 1516 1518 1518 1519 1520 1520 1521 1521 1522 1522 1523 1524 1524 1525 1525 1526 1526 1527 1527 1528 1528 1529 1531 1534 1536 1538 1540 1542
1488 1490 1492 1500 1507 1504 1502 1502 1501 1502 1503 1504 1506 1509 1511 1513 1514 1514 1515 1516 1517 1519 1520 1520 1521 1522 1523 1523 1524 1524 1525 1525 1526 1527 1527 1527 1528 1528 1529 1529 1530 1531 1532 1534 1536 1538 1540 1542 1545
1488 1490 1499 1508 1506 1501 1500 1501 1502 1503 1505 1507 1508 1511 1514 1515 1516 1516 1517 1518 1520 1521 1522 1523 1524 1524 1525 1526 1526 1527 1527 1528 1528 1528 1529 1529 1530 1531 1531 1532 1532 1534 1535 1537 1539 1540 1543 1545 1547
1489 1492 1509 1515 1508 1502 1502 1503 1504 1505 1507 1509 1510 1513 1516 1517 1518 1519 1520 1521 1522 1523 1524 1525 1526 1527 1527 1528 1528 1529 1529 1530 1530 1530 1530 1531 1531 1533 1533 1534 1535 1536 1538 1540 1541 1543 1545 1547 1550
1491 1497 1508 1509 1508 1505 1504 1504 1505 1506 1508 1510 1511 1514 1517 1519 1520 1521 1522 1523 1524 1525 1526 1527 1528 1529 1529 1530 1531 1531 1532 1532 1532 1532 1532 1532 1533 1535 1536 1537 1538 1539 1540 1542 1543 1545 1547 1550 1552
1490 1496 1505 1508 1507 1506 1503 1504 1506 1507 1509 1511 1512 1514 1517 1519 1521 1522 1523 1525 1526 1527 1528 1529 1530 1530 1531 1532 1533 1533 1534 1534 1534 1534 1534 1535 1536 1537 1539 1540 1541 1542 1543 1544 1545 1547 1550 1552 1554
1491 1501 1509 1505 1504 1503 1502 1504 1507 1508 1509 1512 1513 1514 1516 1519 1521 1523 1524 1526 1527 1529 1530 1531 1531 1532 1533 1534 1535 1535 1536 1536 1537 1537 1537 1538 1539 1540 1541 1542 1543 1545 1546 1546 1548 1550 1552 1554 1556
1491 1504 1501 1495 1495 1498 1501 1503 1506 1508 1510 1512 1513 1515 1517 1519 1522 1523 1525 1526 1528 1529 1531 1532 1533 1534 1535 1535 1536 1537 1538 1538 1539 1539 1539 1540 1541 1542 1544 1545 1546 1547 1548 1549 1550 1552 1554 1556 1557
1489 1495 1491 1491 1493 1495 1500 1503 1505 1507 1511 1510 1511 1514 1517 1520 1522 1524 1526 1527 1529 1531 1532 1533 1535 1536 1536 1537 1538 1539 1539 1540 1541 1541 1542 1542 1543 1544 1546 1547 1548 1549 1550 1551 1552 1554 1556 1558 1559
1489 1488 1488 1490 1493 1496 1500 1503 1505 1507 1507 1508 1511 1514 1517 1520 1522 1524 1526 1528 1530 1531 1533 1535 1536 1537 1538 1539 1539 1540 1541 1542 1543 1543 1544 1545 1545 1546 1547 1548 1549 1550 1552 1553 1554 1556 1557 1559 1560
1488 1488 1489 1490 1493 1497 1500 1503 1505 1507 1507 1509 1513 1516 1518 1520 1523 1525 1527 1529 1530 1532 1533 1535 1537 1538 1539 1540 1541 1541 1543 1544 1545 1545 1546 1547 1547 1548 1549 1550 1551 1552 1553 1555 1556 1557 1558 1560 1561
1488 1489 1491 1492 1494 1498 1501 1504 1505 1507 1509 1510 1513 1516 1518 1520 1523 1525 1527 1528 1530 1532 1534 1535 1537 1538 1540 1541 1542 1543 1544 1545 1545 1546 1547 1548 1549 1550 1551 1552 1553 1554 1555 1556 1557 1558 1559 1560 1561
1488 1492 1494 1495 1496 1499 1502 1508 1505 1506 1509 1511 1514 1516 1518 1521 1523 1524 1526 1528 1530 1532 1534 1535 1537 1539 1540 1541 1542 1543 1544 1545 1546 1547 1548 1549 1550 1551 1552 1553 1554 1555 1556 1557 1557 1558 1559 1560 1561
1491 1499 1505 1498 1497 1499 1505 1512 1504 1505 1507 1510 1513 1516 1518 1520 1522 1524 1526 1528 1530 1532 1534 1536 1537 1539 1540 1541 1543 1544 1545 1546 1547 1548 1549 1550 1550 1551 1552 1553 1554 1555 1556 1557 1557 1558 1559 1560 1561
1502 1510 1509 1502 1497 1498 1503 1507 1502 1504 1506 1509 1512 1514 1517 1519 1521 1523 1525 1527 1530 1532 1534 1535 1537 1539 1540 1542 1543 1544 1545 1546 1547 1548 1549 1550 1551 1552 1552 1553 1554 1555 1556 1557 1557 1558 1559 1559 1560
1509 1509 1507 1506 1498 1499 1503 1504 1501 1503 1505 1507 1510 1513 1515 1517 1519 1521 1524 1526 1529 1531 1533 1535 1536 1538 1540 1541 1542 1544 1545 1546 1547 1547 1548 1549 1550 1551 1552 1553 1554 1555 1556 1556 1557 1557 1558 1558 1559
1496 1502 1505 1501 1495 1499 1503 1503 1502 1502 1505 1507 1508 1510 1512 1514 1517 1520 1523 1525 1528 1530 1532 1534 1535 1537 1539 1540 1542 1543 1544 1545 1546 1547 1548 1549 1550 1551 1551 1552 1553 1554 1555 1555 1556 1556 1557 1557 1558
1495 1502 1504 1499 1495 1499 1504 1505 1501 1501 1502 1503 1505 1506 1508 1511 1515 1517 1520 1523 1525 1528 1530 1532 1534 1536 1538 1539 1541 1542 1543 1544 1545 1546 1547 1548 1549 1549 1550 1551 1552 1552 1553 1554 1555 1555 1556 1556 1556
1495 1499 1500 1501 1498 1500 1505 1509 1504 1501 1502 1503 1503 1504 1506 1508 1511 1514 1517 1520 1523 1525 1528 1530 1533 1535 1536 1538 1540 1541 1542 1543 1544 1545 1546 1547 1547 1548 1549 1549 1550 1551 1552 1552 1553 1554 1554 1554 1555
1497 1488 1491 1497 1507 1516 1510 1526 1508 1503 1501 1500 1500 1501 1502 1504 1507 1510 1514 1517 1519 1522 1526 1528 1531 1533 1535 1536 1538 1539 1540 1541 1542 1544 1545 1545 1546 1546 1547 1547 1548 1549 1549 1550 1551 1551 1552 1552 1553
1487 1484 1490 1497 1508 1517 1515 1523 1514 1504 1503 1497 1495 1496 1497 1500 1503 1506 1509 1512 1516 1520 1523 1525 1528 1531 1533 1534 1536 1537 1539 1540 1541 1542 1543 1544 1544 1545 1545 1546 1546 1547 1547 1548 1549 1549 1550 1550 1551
1481 1490 1498 1507 1516 1529 1519 1523 1519 1506 1497 1491 1490 1491 1493 1496 1499 1502 1506 1510 1513 1517 1520 1523 1525 1528 1530 1532 1534 1536 1537 1538 1539 1540 1541 1542 1543 1543 1543 1544 1545 1545 1545 1546 1547 1547 1548 1548 1549
1484 1503 1524 1528 1537 1533 1517 1520 1514 1492 1487 1486 1486 1487 1489 1492 1495 1499 1502 1505 1509 1512 1516 1519 1522 1525 1527 1530 1532 1533 1535 1536 1537 1538 1539 1540 1541 1541 1542 1542 1543 1543 1544 1544 1544 1545 1546 1546 1546
1486 1496 1522 1534 1538 1532 1520 1521 1502 1486 1483 1483 1483 1484 1486 1488 1491 1494 1497 1501 1504 1508 1511 1515 1518 1521 1524 1526 1529 1531 1533 1534 1535 1536 1537 1538 1539 1539 1540 1540 1540 1541 1541 1542 1542 1542 1543 1544 1544
1487 1494 1495 1516 1526 1531 1525 1513 1496 1484 1483 1482 1483 1483 1484 1486 1488 1491 1494 1498 1501 1504 1508 1511 1515 1518 1521 1523 1526 1528 1530 1531 1532 1534 1535 1536 1536 1537 1537 1538 1538 1538 1538 1539 1539 1540 1540 1541 1542
1476 1487 1503 1516 1532 1535 1523 1516 1507 1490 1485 1482 1482 1482 1483 1485 1487 1489 1491 1494 1498 1501 1505 1509 1513 1515 1518 1521 1523 1525 1527 1528 1529 1530 1532 1533 1533 1534 1534 1535 1535 1535 1536 1536 1537 1537 1538 1538 1539
1481 1489 1499 1511 1513 1528 1531 1517 1485 1482 1479 1480 1480 1480 1481 1483 1485 1487 1489 1492 1496 1499 1502 1507 1510 1513 1516 1518 1521 1522 1523 1525 1526 1527 1528 1529 1530 1531 1532 1532 1532 1532 1533 1533 1534 1534 1535 1535 1536
1471 1479 1491 1503 1512 1517 1519 1509 1476 1476 1476 1477 1479 1480 1481 1482 1484 1486 1488 1491 1494 1497 1500 1504 1506 1510 1512 1515 1517 1519 1520 1521 1523 1524 1525 1526 1527 1527 1528 1529 1529 1529 1530 1530 1531 1531 1532 1532 1533